Time,TemperatureF,DewpointF,PressureIn,WindDirection,WindDirectionDegrees,WindSpeedMPH,WindSpeedGustMPH,Humidity,HourlyPrecipIn,Conditions,Clouds,dailyrainin,SoftwareType,DateUTC
2013-02-09 00:00:00,41.3,18.8,29.93,SSE,158,2.0,2.9,40,0.00,,,0.00,WUHU216HW,2013-02-09 08:00:00,
2013-02-09 00:05:00,41.1,18.6,29.93,South,180,1.7,2.0,40,0.00,,,0.00,WUHU216HW,2013-02-09 08:05:00,
2013-02-09 00:10:00,41.1,18.6,29.93,SSE,158,3.1,3.1,40,0.00,,,0.00,WUHU216HW,2013-02-09 08:10:00,
2013-02-09 00:15:00,41.1,18.6,29.93,SSE,158,2.0,3.1,40,0.00,,,0.00,WUHU216HW,2013-02-09 08:15:00,
2013-02-09 00:20:00,41.0,18.5,29.93,SSW,203,4.6,4.6,40,0.00,,,0.00,WUHU216HW,2013-02-09 08:20:00,
2013-02-09 00:25:00,41.0,18.5,29.93,SSE,158,1.7,4.6,40,0.00,,,0.00,WUHU216HW,2013-02-09 08:25:00,
2013-02-09 00:30:00,40.6,18.1,29.93,SSE,158,2.4,2.4,40,0.00,,,0.00,WUHU216HW,2013-02-09 08:30:00,
2013-02-09 00:35:00,40.6,18.1,29.93,SSE,158,2.4,2.4,40,0.00,,,0.00,WUHU216HW,2013-02-09 08:35:00,
2013-02-09 00:40:00,40.4,18.0,29.93,SSE,158,1.5,2.4,40,0.00,,,0.00,WUHU216HW,2013-02-09 08:40:00,
2013-02-09 00:45:00,40.4,18.0,29.93,SSE,158,0.8,2.4,40,0.00,,,0.00,WUHU216HW,2013-02-09 08:45:00,
2013-02-09 00:50:00,40.1,17.6,29.93,SSE,158,0.0,1.5,40,0.00,,,0.00,WUHU216HW,2013-02-09 08:50:00,
2013-02-09 00:55:00,39.9,17.5,29.93,SSE,158,0.0,0.0,40,0.00,,,0.00,WUHU216HW,2013-02-09 08:55:00,
2013-02-09 01:00:00,39.5,17.7,29.93,SSE,158,0.0,0.0,41,0.00,,,0.00,WUHU216HW,2013-02-09 09:00:00,
2013-02-09 01:05:00,39.3,17.5,29.93,SE,135,0.0,0.0,41,0.00,,,0.00,WUHU216HW,2013-02-09 09:05:00,
2013-02-09 01:10:00,39.2,17.4,29.93,SE,135,0.0,0.0,41,0.00,,,0.00,WUHU216HW,2013-02-09 09:10:00,
2013-02-09 01:15:00,38.8,17.2,29.93,SE,135,0.0,0.0,41,0.00,,,0.00,WUHU216HW,2013-02-09 09:15:00,
2013-02-09 01:20:00,38.6,17.4,29.93,SE,135,0.0,0.0,42,0.00,,,0.00,WUHU216HW,2013-02-09 09:20:00,
2013-02-09 01:25:00,38.6,17.4,29.93,SE,135,0.0,0.0,42,0.00,,,0.00,WUHU216HW,2013-02-09 09:25:00,
2013-02-09 01:30:00,38.3,17.1,29.93,North,0,0.0,0.0,42,0.00,,,0.00,WUHU216HW,2013-02-09 09:30:00,
2013-02-09 01:35:00,38.3,17.1,29.93,SE,135,0.0,0.0,42,0.00,,,0.00,WUHU216HW,2013-02-09 09:35:00,
2013-02-09 01:40:00,38.3,17.1,29.93,SE,135,0.0,0.0,42,0.00,,,0.00,WUHU216HW,2013-02-09 09:40:00,
2013-02-09 01:45:00,37.7,17.1,29.93,SE,135,0.0,0.0,43,0.00,,,0.00,WUHU216HW,2013-02-09 09:45:00,
2013-02-09 01:50:00,37.2,16.6,29.93,SE,135,0.0,0.0,43,0.00,,,0.00,WUHU216HW,2013-02-09 09:50:00,
2013-02-09 01:55:00,37.0,16.5,29.93,SE,135,0.0,0.0,43,0.00,,,0.00,WUHU216HW,2013-02-09 09:55:00,
2013-02-09 02:00:00,37.0,16.5,29.93,SSE,158,0.0,0.0,43,0.00,,,0.00,WUHU216HW,2013-02-09 10:00:00,
2013-02-09 02:05:00,37.0,16.5,29.94,SSE,158,0.0,0.0,43,0.00,,,0.00,WUHU216HW,2013-02-09 10:05:00,
2013-02-09 02:10:00,36.1,16.2,29.94,SSE,158,0.0,0.0,44,0.00,,,0.00,WUHU216HW,2013-02-09 10:10:00,
2013-02-09 02:15:00,35.7,15.8,29.93,SSE,158,0.0,0.0,44,0.00,,,0.00,WUHU216HW,2013-02-09 10:15:00,
2013-02-09 02:20:00,35.6,16.2,29.93,SSE,158,0.0,0.0,45,0.00,,,0.00,WUHU216HW,2013-02-09 10:20:00,
2013-02-09 02:25:00,35.4,16.0,29.94,SSE,158,0.0,0.0,45,0.00,,,0.00,WUHU216HW,2013-02-09 10:25:00,
2013-02-09 02:30:00,35.0,15.7,29.94,SSE,158,0.0,0.0,45,0.00,,,0.00,WUHU216HW,2013-02-09 10:30:00,
2013-02-09 02:35:00,34.7,15.3,29.93,SSE,158,0.0,0.0,45,0.00,,,0.00,WUHU216HW,2013-02-09 10:35:00,
2013-02-09 02:40:00,34.7,15.3,29.93,SSE,158,0.0,0.0,45,0.00,,,0.00,WUHU216HW,2013-02-09 10:40:00,
2013-02-09 02:45:00,34.1,15.3,29.93,SSE,158,0.0,0.0,46,0.00,,,0.00,WUHU216HW,2013-02-09 10:45:00,
2013-02-09 02:50:00,34.1,15.3,29.94,SSE,158,0.0,0.0,46,0.00,,,0.00,WUHU216HW,2013-02-09 10:50:00,
2013-02-09 02:55:00,33.9,15.7,29.94,SSE,158,0.0,0.0,47,0.00,,,0.00,WUHU216HW,2013-02-09 10:55:00,
2013-02-09 03:00:00,33.9,15.7,29.94,SSE,158,0.0,0.0,47,0.00,,,0.00,WUHU216HW,2013-02-09 11:00:00,
2013-02-09 03:05:00,33.4,15.2,29.94,SSE,158,0.0,0.0,47,0.00,,,0.00,WUHU216HW,2013-02-09 11:05:00,
2013-02-09 03:10:00,33.4,15.2,29.94,SSE,158,0.0,0.0,47,0.00,,,0.00,WUHU216HW,2013-02-09 11:10:00,
2013-02-09 03:15:00,33.2,15.0,29.94,SSE,158,0.0,0.0,47,0.00,,,0.00,WUHU216HW,2013-02-09 11:15:00,
2013-02-09 03:20:00,32.9,14.7,29.94,SSE,158,0.0,0.0,47,0.00,,,0.00,WUHU216HW,2013-02-09 11:20:00,
2013-02-09 03:25:00,32.9,15.2,29.94,SSE,158,0.0,0.0,48,0.00,,,0.00,WUHU216HW,2013-02-09 11:25:00,
2013-02-09 03:30:00,32.9,15.2,29.94,SSE,158,0.0,0.0,48,0.00,,,0.00,WUHU216HW,2013-02-09 11:30:00,
2013-02-09 03:35:00,32.3,14.7,29.94,SSE,158,0.0,0.0,48,0.00,,,0.00,WUHU216HW,2013-02-09 11:35:00,
2013-02-09 03:40:00,32.1,14.5,29.94,SSE,158,0.2,0.2,48,0.00,,,0.00,WUHU216HW,2013-02-09 11:40:00,
2013-02-09 03:45:00,32.1,14.5,29.94,SSE,158,1.7,1.7,48,0.00,,,0.00,WUHU216HW,2013-02-09 11:45:00,
2013-02-09 03:50:00,32.1,15.0,29.94,SSE,158,0.0,1.7,49,0.00,,,0.00,WUHU216HW,2013-02-09 11:50:00,
2013-02-09 03:55:00,32.0,14.9,29.94,ENE,68,0.0,1.7,49,0.00,,,0.00,WUHU216HW,2013-02-09 11:55:00,
2013-02-09 04:00:00,32.0,15.4,29.94,NNW,338,0.0,0.0,50,0.00,,,0.00,WUHU216HW,2013-02-09 12:00:00,
2013-02-09 04:05:00,32.1,16.0,29.94,NNW,338,0.0,0.0,51,0.00,,,0.00,WUHU216HW,2013-02-09 12:05:00,
2013-02-09 04:10:00,31.8,15.6,29.94,NNW,338,0.0,0.0,51,0.00,,,0.00,WUHU216HW,2013-02-09 12:10:00,
2013-02-09 04:15:00,31.8,15.6,29.94,North,0,0.0,0.0,51,0.00,,,0.00,WUHU216HW,2013-02-09 12:15:00,
2013-02-09 04:20:00,31.6,15.5,29.94,SSE,158,0.0,0.0,51,0.00,,,0.00,WUHU216HW,2013-02-09 12:20:00,
2013-02-09 04:25:00,31.4,15.3,29.94,SW,225,0.0,0.0,51,0.00,,,0.00,WUHU216HW,2013-02-09 12:25:00,
2013-02-09 04:31:00,31.4,15.8,29.94,SW,225,0.0,0.0,52,0.00,,,0.00,WUHU216HW,2013-02-09 12:31:00,
2013-02-09 04:36:00,31.6,15.9,29.94,SW,225,0.0,0.0,52,0.00,,,0.00,WUHU216HW,2013-02-09 12:36:00,
2013-02-09 04:41:00,31.4,16.2,29.95,WSW,248,0.0,0.0,53,0.00,,,0.00,WUHU216HW,2013-02-09 12:41:00,
2013-02-09 04:46:00,31.2,16.4,29.94,West,270,0.0,0.0,54,0.00,,,0.00,WUHU216HW,2013-02-09 12:46:00,
2013-02-09 04:51:00,31.1,16.3,29.95,West,270,0.0,0.0,54,0.00,,,0.00,WUHU216HW,2013-02-09 12:51:00,
2013-02-09 04:56:00,31.1,16.3,29.95,WNW,293,0.0,0.0,54,0.00,,,0.00,WUHU216HW,2013-02-09 12:56:00,
2013-02-09 05:01:00,30.9,16.1,29.95,WNW,293,0.0,0.0,54,0.00,,,0.00,WUHU216HW,2013-02-09 13:01:00,
2013-02-09 05:06:00,30.9,16.1,29.95,WNW,293,0.0,0.0,54,0.00,,,0.00,WUHU216HW,2013-02-09 13:06:00,
2013-02-09 05:11:00,30.5,15.8,29.96,WNW,293,0.0,0.0,54,0.00,,,0.00,WUHU216HW,2013-02-09 13:11:00,
2013-02-09 05:16:00,30.3,16.0,29.95,WNW,293,0.0,0.0,55,0.00,,,0.00,WUHU216HW,2013-02-09 13:16:00,
2013-02-09 05:21:00,30.3,15.6,29.95,WNW,293,0.0,0.0,54,0.00,,,0.00,WUHU216HW,2013-02-09 13:21:00,
2013-02-09 05:26:00,30.0,15.3,29.96,WNW,293,0.0,0.0,54,0.00,,,0.00,WUHU216HW,2013-02-09 13:26:00,
2013-02-09 05:31:00,30.0,15.3,29.95,WNW,293,0.0,0.0,54,0.00,,,0.00,WUHU216HW,2013-02-09 13:31:00,
2013-02-09 05:36:00,29.8,15.5,29.95,WNW,293,0.0,0.0,55,0.00,,,0.00,WUHU216HW,2013-02-09 13:36:00,
2013-02-09 05:41:00,29.8,15.5,29.96,WNW,293,0.0,0.0,55,0.00,,,0.00,WUHU216HW,2013-02-09 13:41:00,
2013-02-09 05:46:00,29.8,15.5,29.96,WNW,293,0.0,0.0,55,0.00,,,0.00,WUHU216HW,2013-02-09 13:46:00,
2013-02-09 05:51:00,29.4,15.2,29.96,WNW,293,0.0,0.0,55,0.00,,,0.00,WUHU216HW,2013-02-09 13:51:00,
2013-02-09 05:56:00,29.4,15.2,29.95,WNW,293,0.0,0.0,55,0.00,,,0.00,WUHU216HW,2013-02-09 13:56:00,
2013-02-09 06:01:00,29.3,15.0,29.96,WNW,293,0.0,0.0,55,0.00,,,0.00,WUHU216HW,2013-02-09 14:01:00,
2013-02-09 06:06:00,29.1,14.9,29.96,WNW,293,0.0,0.0,55,0.00,,,0.00,WUHU216HW,2013-02-09 14:06:00,
2013-02-09 06:11:00,28.7,14.5,29.96,WNW,293,0.0,0.0,55,0.00,,,0.00,WUHU216HW,2013-02-09 14:11:00,
2013-02-09 06:16:00,28.7,14.5,29.96,WNW,293,0.0,0.0,55,0.00,,,0.00,WUHU216HW,2013-02-09 14:16:00,
2013-02-09 06:21:00,28.7,14.5,29.97,WNW,293,0.0,0.0,55,0.00,,,0.00,WUHU216HW,2013-02-09 14:21:00,
2013-02-09 06:26:00,28.7,15.0,29.97,WNW,293,0.0,0.0,56,0.00,,,0.00,WUHU216HW,2013-02-09 14:26:00,
2013-02-09 06:31:00,28.5,14.8,29.97,WNW,293,0.0,0.0,56,0.00,,,0.00,WUHU216HW,2013-02-09 14:31:00,
2013-02-09 06:36:00,27.8,14.1,29.97,WNW,293,0.0,0.0,56,0.00,,,0.00,WUHU216HW,2013-02-09 14:36:00,
2013-02-09 06:41:00,27.8,14.1,29.98,WNW,293,0.0,0.0,56,0.00,,,0.00,WUHU216HW,2013-02-09 14:41:00,
2013-02-09 06:46:00,28.0,14.7,29.97,WNW,293,0.0,0.0,57,0.00,,,0.00,WUHU216HW,2013-02-09 14:46:00,
2013-02-09 06:51:00,27.6,14.3,29.98,WNW,293,0.0,0.0,57,0.00,,,0.00,WUHU216HW,2013-02-09 14:51:00,
2013-02-09 06:56:00,27.8,14.5,29.98,WNW,293,0.0,0.0,57,0.00,,,0.00,WUHU216HW,2013-02-09 14:56:00,
2013-02-09 07:01:00,27.8,14.5,29.98,WNW,293,0.0,0.0,57,0.00,,,0.00,WUHU216HW,2013-02-09 15:01:00,
2013-02-09 07:06:00,27.8,14.5,29.98,WNW,293,0.0,0.0,57,0.00,,,0.00,WUHU216HW,2013-02-09 15:06:00,
2013-02-09 07:11:00,27.5,14.1,29.98,WNW,293,0.0,0.0,57,0.00,,,0.00,WUHU216HW,2013-02-09 15:11:00,
2013-02-09 07:16:00,27.5,14.1,29.98,WNW,293,0.0,0.0,57,0.00,,,0.00,WUHU216HW,2013-02-09 15:16:00,
2013-02-09 07:21:00,27.5,14.1,29.98,WNW,293,0.0,0.0,57,0.00,,,0.00,WUHU216HW,2013-02-09 15:21:00,
2013-02-09 07:26:00,27.5,14.1,29.99,WNW,293,0.0,0.0,57,0.00,,,0.00,WUHU216HW,2013-02-09 15:26:00,
2013-02-09 07:31:00,27.3,14.0,29.98,SW,225,0.0,0.0,57,0.00,,,0.00,WUHU216HW,2013-02-09 15:31:00,
2013-02-09 07:36:00,26.9,13.6,29.99,SW,225,0.0,0.0,57,0.00,,,0.00,WUHU216HW,2013-02-09 15:36:00,
2013-02-09 07:41:00,26.9,14.4,29.99,SW,225,0.0,0.0,58,0.00,,,0.00,WUHU216HW,2013-02-09 15:41:00,
2013-02-09 07:46:00,27.3,14.4,29.99,SW,225,0.0,0.0,58,0.00,,,0.00,WUHU216HW,2013-02-09 15:46:00,
2013-02-09 07:52:00,27.1,14.6,29.99,SW,225,0.0,0.0,59,0.00,,,0.00,WUHU216HW,2013-02-09 15:52:00,
2013-02-09 07:57:00,27.1,15.0,30.00,SW,225,0.0,0.0,60,0.00,,,0.00,WUHU216HW,2013-02-09 15:57:00,
2013-02-09 08:02:00,27.8,15.8,30.00,SW,225,0.0,0.0,60,0.00,,,0.00,WUHU216HW,2013-02-09 16:02:00,
2013-02-09 08:07:00,27.6,15.6,30.00,SW,225,0.0,0.0,60,0.00,,,0.00,WUHU216HW,2013-02-09 16:07:00,
2013-02-09 08:12:00,28.5,15.9,30.00,SW,225,0.0,0.0,61,0.00,,,0.00,WUHU216HW,2013-02-09 16:12:00,
2013-02-09 08:17:00,28.5,16.8,30.01,WNW,293,0.0,0.0,61,0.00,,,0.00,WUHU216HW,2013-02-09 16:17:00,
2013-02-09 08:22:00,29.3,17.8,30.01,WNW,293,0.0,0.0,62,0.00,,,0.00,WUHU216HW,2013-02-09 16:22:00,
2013-02-09 08:27:00,29.8,18.3,30.00,WNW,293,0.0,0.0,62,0.00,,,0.00,WUHU216HW,2013-02-09 16:27:00,
2013-02-09 08:32:00,29.8,18.3,30.00,West,270,0.0,0.0,62,0.00,,,0.00,WUHU216HW,2013-02-09 16:32:00,
2013-02-09 08:37:00,29.8,18.3,30.00,West,270,0.0,0.0,62,0.00,,,0.00,WUHU216HW,2013-02-09 16:37:00,
2013-02-09 08:42:00,31.4,20.6,30.01,West,270,0.0,0.0,64,0.00,,,0.00,WUHU216HW,2013-02-09 16:42:00,
2013-02-09 08:47:00,32.1,21.3,30.01,SSE,158,0.0,0.8,64,0.00,,,0.00,WUHU216HW,2013-02-09 16:47:00,
2013-02-09 08:52:00,32.3,21.8,30.02,SSE,158,2.6,2.6,65,0.00,,,0.00,WUHU216HW,2013-02-09 16:52:00,
2013-02-09 08:57:00,32.3,21.8,30.02,SSE,158,2.6,2.6,65,0.00,,,0.00,WUHU216HW,2013-02-09 16:57:00,
2013-02-09 09:02:00,33.6,23.0,30.01,SSE,158,2.6,2.6,65,0.00,,,0.00,WUHU216HW,2013-02-09 17:02:00,
2013-02-09 09:07:00,34.5,23.9,30.02,SE,135,0.0,2.6,65,0.00,,,0.00,WUHU216HW,2013-02-09 17:07:00,
2013-02-09 09:12:00,34.7,24.0,30.02,SE,135,0.0,2.6,65,0.00,,,0.00,WUHU216HW,2013-02-09 17:12:00,
2013-02-09 09:17:00,35.9,25.3,30.02,WSW,248,0.0,0.0,65,0.00,,,0.00,WUHU216HW,2013-02-09 17:17:00,
2013-02-09 09:22:00,36.6,26.0,30.01,WSW,248,1.5,1.5,65,0.00,,,0.00,WUHU216HW,2013-02-09 17:22:00,
2013-02-09 09:27:00,37.7,26.6,30.01,WSW,248,2.0,2.0,64,0.00,,,0.00,WUHU216HW,2013-02-09 17:27:00,
2013-02-09 09:32:00,38.4,27.2,30.01,WSW,248,3.1,3.1,64,0.00,,,0.00,WUHU216HW,2013-02-09 17:32:00,
2013-02-09 09:37:00,39.0,27.7,30.01,WSW,248,3.8,3.8,64,0.00,,,0.00,WUHU216HW,2013-02-09 17:37:00,
2013-02-09 09:42:00,40.2,28.6,30.01,WSW,248,0.0,3.8,63,0.00,,,0.00,WUHU216HW,2013-02-09 17:42:00,
2013-02-09 09:47:00,41.1,29.5,30.01,WSW,248,0.0,3.8,63,0.00,,,0.00,WUHU216HW,2013-02-09 17:47:00,
2013-02-09 09:52:00,41.7,29.6,30.02,WSW,248,1.7,1.7,62,0.00,,,0.00,WUHU216HW,2013-02-09 17:52:00,
2013-02-09 09:57:00,42.2,30.1,30.02,WSW,248,0.0,1.7,62,0.00,,,0.00,WUHU216HW,2013-02-09 17:57:00,
2013-02-09 10:02:00,43.3,30.7,30.02,WSW,248,0.6,2.2,61,0.00,,,0.00,WUHU216HW,2013-02-09 18:02:00,
2013-02-09 10:07:00,43.7,30.7,30.02,WSW,248,0.0,2.2,60,0.00,,,0.00,WUHU216HW,2013-02-09 18:07:00,
2013-02-09 10:12:00,44.2,30.8,30.02,WSW,248,0.0,1.1,59,0.00,,,0.00,WUHU216HW,2013-02-09 18:12:00,
2013-02-09 10:17:00,44.7,30.9,30.02,WSW,248,0.0,0.8,58,0.00,,,0.00,WUHU216HW,2013-02-09 18:17:00,
2013-02-09 10:22:00,45.3,31.3,30.02,WSW,248,2.2,4.9,58,0.00,,,0.00,WUHU216HW,2013-02-09 18:22:00,
2013-02-09 10:27:00,45.3,31.3,30.03,WSW,248,0.8,4.9,58,0.00,,,0.00,WUHU216HW,2013-02-09 18:27:00,
2013-02-09 10:32:00,45.8,31.8,30.03,WSW,248,6.2,6.2,58,0.00,,,0.00,WUHU216HW,2013-02-09 18:32:00,
2013-02-09 10:37:00,45.8,31.8,30.03,WSW,248,6.2,6.2,58,0.00,,,0.00,WUHU216HW,2013-02-09 18:37:00,
2013-02-09 10:42:00,46.4,32.3,30.03,WSW,248,5.1,6.2,58,0.00,,,0.00,WUHU216HW,2013-02-09 18:42:00,
2013-02-09 10:47:00,46.7,32.7,30.03,WSW,248,5.1,6.2,58,0.00,,,0.00,WUHU216HW,2013-02-09 18:47:00,
2013-02-09 10:52:00,47.1,33.0,30.02,WSW,248,5.1,5.1,58,0.00,,,0.00,WUHU216HW,2013-02-09 18:52:00,
2013-02-09 10:57:00,47.3,33.2,30.03,WSW,248,0.0,5.1,58,0.00,,,0.00,WUHU216HW,2013-02-09 18:57:00,
2013-02-09 11:02:00,47.8,33.2,30.03,WSW,248,6.2,6.2,57,0.00,,,0.00,WUHU216HW,2013-02-09 19:02:00,
2013-02-09 11:07:00,48.0,33.4,30.03,WNW,293,0.0,6.2,57,0.00,,,0.00,WUHU216HW,2013-02-09 19:07:00,
2013-02-09 11:12:00,48.2,33.6,30.03,WSW,248,6.2,6.2,57,0.00,,,0.00,WUHU216HW,2013-02-09 19:12:00,
2013-02-09 11:17:00,48.5,33.9,30.03,WSW,248,0.8,6.2,57,0.00,,,0.00,WUHU216HW,2013-02-09 19:17:00,
2013-02-09 11:23:00,48.5,34.4,30.03,WSW,248,4.0,6.2,57,0.00,,,0.00,WUHU216HW,2013-02-09 19:23:00,
2013-02-09 11:28:00,49.6,34.5,30.03,WSW,248,5.3,5.3,56,0.00,,,0.00,WUHU216HW,2013-02-09 19:28:00,
2013-02-09 11:33:00,49.6,34.5,30.02,WSW,248,2.2,5.3,56,0.00,,,0.00,WUHU216HW,2013-02-09 19:33:00,
2013-02-09 11:38:00,49.6,34.5,30.02,WSW,248,2.9,5.3,56,0.00,,,0.00,WUHU216HW,2013-02-09 19:38:00,
2013-02-09 11:43:00,50.5,34.9,30.03,WSW,248,2.0,2.9,55,0.00,,,0.00,WUHU216HW,2013-02-09 19:43:00,
2013-02-09 11:48:00,50.9,35.2,30.03,NW,315,2.2,2.9,55,0.00,,,0.00,WUHU216HW,2013-02-09 19:48:00,
2013-02-09 11:53:00,51.0,34.5,30.03,NW,315,2.4,3.1,53,0.00,,,0.00,WUHU216HW,2013-02-09 19:53:00,
2013-02-09 11:58:00,51.2,34.2,30.03,East,90,0.0,3.1,52,0.00,,,0.00,WUHU216HW,2013-02-09 19:58:00,
2013-02-09 12:03:00,51.6,34.5,30.03,NW,315,0.0,5.5,52,0.00,,,0.00,WUHU216HW,2013-02-09 20:03:00,
2013-02-09 12:08:00,51.9,34.8,30.02,WNW,293,0.0,5.5,52,0.00,,,0.00,WUHU216HW,2013-02-09 20:08:00,
2013-02-09 12:13:00,52.3,35.1,30.02,East,90,0.0,1.1,52,0.00,,,0.00,WUHU216HW,2013-02-09 20:13:00,
2013-02-09 12:18:00,52.7,35.0,30.02,NNW,338,2.9,2.9,51,0.00,,,0.00,WUHU216HW,2013-02-09 20:18:00,
2013-02-09 12:23:00,53.7,36.0,30.02,South,180,4.2,4.2,51,0.00,,,0.00,WUHU216HW,2013-02-09 20:23:00,
2013-02-09 12:28:00,53.9,35.1,30.02,NNW,338,6.2,6.2,49,0.00,,,0.00,WUHU216HW,2013-02-09 20:28:00,
2013-02-09 12:33:00,54.1,35.3,30.02,NNW,338,6.2,6.2,49,0.00,,,0.00,WUHU216HW,2013-02-09 20:33:00,
2013-02-09 12:38:00,54.3,35.5,30.01,NNW,338,5.8,6.2,49,0.00,,,0.00,WUHU216HW,2013-02-09 20:38:00,
2013-02-09 12:43:00,54.5,35.1,30.01,NW,315,6.4,6.4,48,0.00,,,0.00,WUHU216HW,2013-02-09 20:43:00,
2013-02-09 12:48:00,54.8,35.4,30.01,NW,315,6.4,6.4,48,0.00,,,0.00,WUHU216HW,2013-02-09 20:48:00,
2013-02-09 12:54:00,55.0,36.1,30.02,North,0,5.1,6.4,49,0.00,,,0.00,WUHU216HW,2013-02-09 20:54:00,
2013-02-09 12:59:00,55.7,36.8,30.01,ESE,113,0.6,6.4,49,0.00,,,0.00,WUHU216HW,2013-02-09 20:59:00,
2013-02-09 13:04:00,56.4,38.1,30.01,SE,135,0.0,5.1,50,0.00,,,0.00,WUHU216HW,2013-02-09 21:04:00,
2013-02-09 13:09:00,58.6,38.9,30.00,NE,45,0.0,0.0,48,0.00,,,0.00,WUHU216HW,2013-02-09 21:09:00,
2013-02-09 13:14:00,59.1,38.3,30.00,NW,315,4.0,4.0,46,0.00,,,0.00,WUHU216HW,2013-02-09 21:14:00,
2013-02-09 13:19:00,59.3,37.3,30.00,NW,315,2.9,4.0,44,0.00,,,0.00,WUHU216HW,2013-02-09 21:19:00,
2013-02-09 13:24:00,59.3,36.7,30.00,North,0,0.0,3.1,43,0.00,,,0.00,WUHU216HW,2013-02-09 21:24:00,
2013-02-09 13:29:00,60.0,36.8,30.01,WNW,293,1.3,2.9,42,0.00,,,0.00,WUHU216HW,2013-02-09 21:29:00,
2013-02-09 13:34:00,62.2,38.7,30.00,NNE,23,0.0,1.3,42,0.00,,,0.00,WUHU216HW,2013-02-09 21:34:00,
2013-02-09 13:39:00,62.2,38.7,30.00,NNW,338,2.9,2.9,42,0.00,,,0.00,WUHU216HW,2013-02-09 21:39:00,
2013-02-09 13:44:00,65.3,38.9,30.00,WNW,293,1.3,2.9,38,0.00,,,0.00,WUHU216HW,2013-02-09 21:44:00,
2013-02-09 13:50:00,68.1,39.2,30.00,WNW,293,1.5,1.5,35,0.00,,,0.00,WUHU216HW,2013-02-09 21:50:00,
2013-02-09 13:55:00,69.2,38.0,30.00,NNW,338,0.0,1.5,32,0.00,,,0.00,WUHU216HW,2013-02-09 21:55:00,
2013-02-09 14:00:00,71.0,39.6,30.00,North,0,0.8,0.8,32,0.00,,,0.00,WUHU216HW,2013-02-09 22:00:00,
2013-02-09 14:05:00,72.1,36.0,30.00,NW,315,0.0,3.1,27,0.00,,,0.00,WUHU216HW,2013-02-09 22:05:00,
2013-02-09 14:10:00,73.2,36.9,30.00,NW,315,0.0,3.1,27,0.00,,,0.00,WUHU216HW,2013-02-09 22:10:00,
2013-02-09 14:15:00,75.0,36.4,30.00,ESE,113,0.0,0.8,25,0.00,,,0.00,WUHU216HW,2013-02-09 22:15:00,
2013-02-09 14:20:00,76.1,36.3,30.00,SE,135,3.8,3.8,24,0.00,,,0.00,WUHU216HW,2013-02-09 22:20:00,
2013-02-09 14:25:00,77.0,34.9,30.00,SSE,158,4.2,4.2,22,0.00,,,0.00,WUHU216HW,2013-02-09 22:25:00,
2013-02-09 14:30:00,77.7,32.1,30.00,SSE,158,4.2,4.2,19,0.00,,,0.00,WUHU216HW,2013-02-09 22:30:00,
2013-02-09 14:35:00,77.3,31.8,30.00,SW,225,0.0,4.2,19,0.00,,,0.00,WUHU216HW,2013-02-09 22:35:00,
2013-02-09 14:40:00,77.1,31.6,30.00,NNW,338,0.0,1.5,19,0.00,,,0.00,WUHU216HW,2013-02-09 22:40:00,
2013-02-09 14:45:00,77.1,31.6,30.00,WSW,248,0.0,1.1,19,0.00,,,0.00,WUHU216HW,2013-02-09 22:45:00,
2013-02-09 14:50:00,76.6,31.2,30.00,WNW,293,1.1,1.1,19,0.00,,,0.00,WUHU216HW,2013-02-09 22:50:00,
2013-02-09 14:55:00,76.1,30.8,29.99,South,180,0.0,3.1,19,0.00,,,0.00,WUHU216HW,2013-02-09 22:55:00,
2013-02-09 15:00:00,75.5,30.3,30.00,South,180,0.0,3.1,19,0.00,,,0.00,WUHU216HW,2013-02-09 23:00:00,
2013-02-09 15:05:00,75.0,29.9,30.00,NNW,338,0.0,0.0,19,0.00,,,0.00,WUHU216HW,2013-02-09 23:05:00,
2013-02-09 15:10:00,75.0,29.9,30.00,NNW,338,0.0,0.0,19,0.00,,,0.00,WUHU216HW,2013-02-09 23:10:00,
2013-02-09 15:15:00,73.5,28.7,30.00,WNW,293,0.0,0.6,19,0.00,,,0.00,WUHU216HW,2013-02-09 23:15:00,
2013-02-09 15:20:00,72.5,27.8,30.00,SSE,158,0.0,0.6,19,0.00,,,0.00,WUHU216HW,2013-02-09 23:20:00,
2013-02-09 15:25:00,72.1,27.5,30.00,SE,135,0.0,0.0,19,0.00,,,0.00,WUHU216HW,2013-02-09 23:25:00,
2013-02-09 15:30:00,71.7,27.2,30.00,SE,135,0.0,0.0,19,0.00,,,0.00,WUHU216HW,2013-02-09 23:30:00,
2013-02-09 15:35:00,69.4,25.3,30.00,North,0,0.0,1.3,19,0.00,,,0.00,WUHU216HW,2013-02-09 23:35:00,
2013-02-09 15:40:00,68.3,24.4,30.00,North,0,0.0,1.3,19,0.00,,,0.00,WUHU216HW,2013-02-09 23:40:00,
2013-02-09 15:45:00,68.3,24.4,30.00,North,0,0.0,0.0,19,0.00,,,0.00,WUHU216HW,2013-02-09 23:45:00,
2013-02-09 15:50:00,65.6,26.4,30.00,NNW,338,0.0,2.4,23,0.00,,,0.00,WUHU216HW,2013-02-09 23:50:00,
2013-02-09 15:55:00,64.5,25.5,30.00,NNW,338,0.0,2.4,23,0.00,,,0.00,WUHU216HW,2013-02-09 23:55:00,
2013-02-09 16:00:00,63.6,25.8,30.00,NW,315,1.7,1.7,24,0.00,,,0.00,WUHU216HW,2013-02-10 00:00:00,
2013-02-09 16:05:00,62.2,25.5,30.01,NNW,338,0.0,1.7,25,0.00,,,0.00,WUHU216HW,2013-02-10 00:05:00,
2013-02-09 16:10:00,62.0,27.3,30.01,North,0,0.0,1.7,27,0.00,,,0.00,WUHU216HW,2013-02-10 00:10:00,
2013-02-09 16:15:00,60.9,26.4,30.01,South,180,1.5,1.5,27,0.00,,,0.00,WUHU216HW,2013-02-10 00:15:00,
2013-02-09 16:20:00,59.9,26.4,30.01,SSW,203,0.0,1.5,28,0.00,,,0.00,WUHU216HW,2013-02-10 00:20:00,
2013-02-09 16:25:00,59.3,26.0,30.00,NW,315,2.4,2.4,28,0.00,,,0.00,WUHU216HW,2013-02-10 00:25:00,
2013-02-09 16:30:00,59.0,27.6,30.00,West,270,0.0,2.4,30,0.00,,,0.00,WUHU216HW,2013-02-10 00:30:00,
2013-02-09 16:35:00,58.1,26.8,29.99,NW,315,0.0,2.4,30,0.00,,,0.00,WUHU216HW,2013-02-10 00:35:00,
2013-02-09 16:41:00,57.7,27.2,29.99,NW,315,0.0,0.0,31,0.00,,,0.00,WUHU216HW,2013-02-10 00:41:00,
2013-02-09 16:46:00,57.3,26.9,29.99,NNW,338,0.0,1.3,31,0.00,,,0.00,WUHU216HW,2013-02-10 00:46:00,
2013-02-09 16:51:00,57.0,27.3,30.00,NW,315,0.0,1.3,32,0.00,,,0.00,WUHU216HW,2013-02-10 00:51:00,
2013-02-09 16:56:00,57.0,27.3,30.00,NNE,23,0.0,0.0,32,0.00,,,0.00,WUHU216HW,2013-02-10 00:56:00,
2013-02-09 17:01:00,56.1,27.1,30.00,SSW,203,0.0,1.3,33,0.00,,,0.00,WUHU216HW,2013-02-10 01:01:00,
2013-02-09 17:06:00,55.7,26.8,30.00,NW,315,0.0,1.3,33,0.00,,,0.00,WUHU216HW,2013-02-10 01:06:00,
2013-02-09 17:11:00,55.5,27.4,30.00,NW,315,0.0,0.0,34,0.00,,,0.00,WUHU216HW,2013-02-10 01:11:00,
2013-02-09 17:16:00,55.2,27.0,30.00,NNW,338,0.0,0.0,34,0.00,,,0.00,WUHU216HW,2013-02-10 01:16:00,
2013-02-09 17:21:00,54.8,26.7,30.00,NNW,338,0.0,0.0,34,0.00,,,0.00,WUHU216HW,2013-02-10 01:21:00,
2013-02-09 17:26:00,54.5,26.4,30.00,SSE,158,0.0,0.0,34,0.00,,,0.00,WUHU216HW,2013-02-10 01:26:00,
2013-02-09 17:31:00,54.1,26.1,30.01,NNW,338,0.0,0.0,34,0.00,,,0.00,WUHU216HW,2013-02-10 01:31:00,
2013-02-09 17:36:00,53.9,27.4,30.01,NNW,338,0.0,0.0,36,0.00,,,0.00,WUHU216HW,2013-02-10 01:36:00,
2013-02-09 17:41:00,53.6,27.1,30.01,NW,315,0.0,0.0,36,0.00,,,0.00,WUHU216HW,2013-02-10 01:41:00,
2013-02-09 17:46:00,53.0,26.6,30.01,NW,315,0.0,0.0,36,0.00,,,0.00,WUHU216HW,2013-02-10 01:46:00,
2013-02-09 17:51:00,53.0,27.3,30.01,NW,315,0.0,0.0,37,0.00,,,0.00,WUHU216HW,2013-02-10 01:51:00,
2013-02-09 17:56:00,52.7,26.9,30.00,NW,315,0.0,0.0,37,0.00,,,0.00,WUHU216HW,2013-02-10 01:56:00,
2013-02-09 18:01:00,52.7,26.9,30.00,NW,315,0.0,0.0,37,0.00,,,0.00,WUHU216HW,2013-02-10 02:01:00,
2013-02-09 18:06:00,51.9,26.3,30.01,NW,315,0.0,0.0,37,0.00,,,0.00,WUHU216HW,2013-02-10 02:06:00,
2013-02-09 18:11:00,51.8,26.8,30.01,NW,315,0.0,0.0,38,0.00,,,0.00,WUHU216HW,2013-02-10 02:11:00,
2013-02-09 18:16:00,51.2,26.3,30.01,NW,315,0.0,0.0,38,0.00,,,0.00,WUHU216HW,2013-02-10 02:16:00,
2013-02-09 18:21:00,50.9,26.7,30.02,NW,315,0.0,0.0,39,0.00,,,0.00,WUHU216HW,2013-02-10 02:21:00,
2013-02-09 18:26:00,50.7,26.5,30.02,NW,315,0.0,0.0,39,0.00,,,0.00,WUHU216HW,2013-02-10 02:26:00,
2013-02-09 18:31:00,50.1,26.7,30.02,NW,315,0.0,0.0,40,0.00,,,0.00,WUHU216HW,2013-02-10 02:31:00,
2013-02-09 18:36:00,50.1,26.7,30.02,NW,315,0.0,0.0,40,0.00,,,0.00,WUHU216HW,2013-02-10 02:36:00,
2013-02-09 18:41:00,49.4,26.1,30.03,NW,315,0.0,0.0,40,0.00,,,0.00,WUHU216HW,2013-02-10 02:41:00,
2013-02-09 18:46:00,48.9,25.6,30.03,NW,315,0.0,0.0,40,0.00,,,0.00,WUHU216HW,2013-02-10 02:46:00,
2013-02-09 18:51:00,48.3,25.1,30.03,NW,315,0.0,0.0,40,0.00,,,0.00,WUHU216HW,2013-02-10 02:51:00,
2013-02-09 18:56:00,47.6,24.4,30.03,NW,315,0.0,0.0,40,0.00,,,0.00,WUHU216HW,2013-02-10 02:56:00,
2013-02-09 19:01:00,47.3,24.1,30.03,NW,315,0.0,0.0,40,0.00,,,0.00,WUHU216HW,2013-02-10 03:01:00,
2013-02-09 19:06:00,46.5,24.2,30.03,NW,315,0.0,0.0,41,0.00,,,0.00,WUHU216HW,2013-02-10 03:06:00,
2013-02-09 19:11:00,46.5,24.0,30.03,NW,315,0.0,0.0,41,0.00,,,0.00,WUHU216HW,2013-02-10 03:11:00,
2013-02-09 19:16:00,45.8,23.9,30.04,NW,315,0.0,0.0,42,0.00,,,0.00,WUHU216HW,2013-02-10 03:16:00,
2013-02-09 19:21:00,45.5,23.6,30.04,NW,315,0.0,0.0,42,0.00,,,0.00,WUHU216HW,2013-02-10 03:21:00,
2013-02-09 19:26:00,44.9,23.6,30.04,NW,315,0.0,0.0,43,0.00,,,0.00,WUHU216HW,2013-02-10 03:26:00,
2013-02-09 19:31:00,44.7,23.5,30.04,NW,315,0.0,0.0,43,0.00,,,0.00,WUHU216HW,2013-02-10 03:31:00,
2013-02-09 19:36:00,44.2,23.0,30.04,NW,315,0.0,0.0,43,0.00,,,0.00,WUHU216HW,2013-02-10 03:36:00,
2013-02-09 19:41:00,44.2,23.5,30.04,NW,315,0.0,0.0,44,0.00,,,0.00,WUHU216HW,2013-02-10 03:41:00,
2013-02-09 19:46:00,43.7,23.0,30.04,NW,315,0.0,0.0,44,0.00,,,0.00,WUHU216HW,2013-02-10 03:46:00,
2013-02-09 19:51:00,43.5,22.9,30.04,NW,315,0.0,0.0,44,0.00,,,0.00,WUHU216HW,2013-02-10 03:51:00,
2013-02-09 19:56:00,43.1,23.1,30.04,NW,315,0.0,0.0,45,0.00,,,0.00,WUHU216HW,2013-02-10 03:56:00,
2013-02-09 20:01:00,42.9,22.9,30.04,NW,315,0.0,0.0,45,0.00,,,0.00,WUHU216HW,2013-02-10 04:01:00,
2013-02-09 20:06:00,42.4,22.4,30.04,NW,315,0.0,0.0,45,0.00,,,0.00,WUHU216HW,2013-02-10 04:06:00,
2013-02-09 20:11:00,42.4,23.0,30.04,NW,315,0.0,0.0,46,0.00,,,0.00,WUHU216HW,2013-02-10 04:11:00,
2013-02-09 20:16:00,42.2,22.8,30.04,NW,315,0.0,0.0,46,0.00,,,0.00,WUHU216HW,2013-02-10 04:16:00,
2013-02-09 20:21:00,41.9,23.0,30.04,NW,315,0.0,0.0,47,0.00,,,0.00,WUHU216HW,2013-02-10 04:21:00,
2013-02-09 20:26:00,41.9,23.0,30.04,NW,315,0.0,0.0,47,0.00,,,0.00,WUHU216HW,2013-02-10 04:26:00,
2013-02-09 20:31:00,41.3,23.0,30.05,NW,315,0.0,0.0,48,0.00,,,0.00,WUHU216HW,2013-02-10 04:31:00,
2013-02-09 20:37:00,41.1,22.8,30.05,NW,315,0.0,0.0,48,0.00,,,0.00,WUHU216HW,2013-02-10 04:37:00,
2013-02-09 20:42:00,40.8,22.5,30.05,WNW,293,0.0,0.0,48,0.00,,,0.00,WUHU216HW,2013-02-10 04:42:00,
2013-02-09 20:47:00,40.6,22.3,30.05,WNW,293,0.0,0.0,48,0.00,,,0.00,WUHU216HW,2013-02-10 04:47:00,
2013-02-09 20:52:00,40.4,22.7,30.05,WNW,293,0.0,0.0,49,0.00,,,0.00,WUHU216HW,2013-02-10 04:52:00,
2013-02-09 20:57:00,40.1,22.3,30.05,WNW,293,0.0,0.0,49,0.00,,,0.00,WUHU216HW,2013-02-10 04:57:00,
2013-02-09 21:02:00,40.1,22.3,30.05,WNW,293,0.0,0.0,49,0.00,,,0.00,WUHU216HW,2013-02-10 05:02:00,
2013-02-09 21:07:00,39.7,22.0,30.05,WNW,293,0.0,0.0,49,0.00,,,0.00,WUHU216HW,2013-02-10 05:07:00,
2013-02-09 21:12:00,39.5,22.4,30.05,WNW,293,0.0,0.0,50,0.00,,,0.00,WUHU216HW,2013-02-10 05:12:00,
2013-02-09 21:17:00,39.2,22.1,30.05,WNW,293,0.0,0.0,50,0.00,,,0.00,WUHU216HW,2013-02-10 05:17:00,
2013-02-09 21:22:00,39.3,22.6,30.05,WNW,293,0.0,0.0,51,0.00,,,0.00,WUHU216HW,2013-02-10 05:22:00,
2013-02-09 21:27:00,38.8,22.2,30.05,WNW,293,0.0,0.0,51,0.00,,,0.00,WUHU216HW,2013-02-10 05:27:00,
2013-02-09 21:32:00,38.6,22.0,30.05,WNW,293,0.0,0.0,51,0.00,,,0.00,WUHU216HW,2013-02-10 05:32:00,
2013-02-09 21:37:00,38.6,22.0,30.05,WNW,293,0.0,0.0,51,0.00,,,0.00,WUHU216HW,2013-02-10 05:37:00,
2013-02-09 21:42:00,38.3,22.1,30.05,WNW,293,0.0,0.0,52,0.00,,,0.00,WUHU216HW,2013-02-10 05:42:00,
2013-02-09 21:47:00,38.3,22.1,30.05,WNW,293,0.0,0.0,52,0.00,,,0.00,WUHU216HW,2013-02-10 05:47:00,
2013-02-09 21:52:00,38.1,21.9,30.05,WNW,293,0.0,0.0,52,0.00,,,0.00,WUHU216HW,2013-02-10 05:52:00,
2013-02-09 21:57:00,38.1,21.9,30.05,WNW,293,0.0,0.0,52,0.00,,,0.00,WUHU216HW,2013-02-10 05:57:00,
2013-02-09 22:02:00,37.5,21.5,30.05,WNW,293,0.0,0.0,52,0.00,,,0.00,WUHU216HW,2013-02-10 06:02:00,
2013-02-09 22:07:00,37.5,21.5,30.05,WNW,293,0.0,0.0,52,0.00,,,0.00,WUHU216HW,2013-02-10 06:07:00,
2013-02-09 22:12:00,37.4,21.3,30.05,WNW,293,0.0,0.0,52,0.00,,,0.00,WUHU216HW,2013-02-10 06:12:00,
2013-02-09 22:17:00,37.0,21.0,30.06,WNW,293,0.0,0.0,52,0.00,,,0.00,WUHU216HW,2013-02-10 06:17:00,
2013-02-09 22:22:00,37.0,21.0,30.06,WNW,293,0.0,0.0,52,0.00,,,0.00,WUHU216HW,2013-02-10 06:22:00,
2013-02-09 22:27:00,36.8,20.8,30.06,WNW,293,0.0,0.0,52,0.00,,,0.00,WUHU216HW,2013-02-10 06:27:00,
2013-02-09 22:32:00,36.8,21.2,30.06,WNW,293,0.0,0.0,53,0.00,,,0.00,WUHU216HW,2013-02-10 06:32:00,
2013-02-09 22:37:00,36.6,21.5,30.06,WNW,293,0.0,0.0,54,0.00,,,0.00,WUHU216HW,2013-02-10 06:37:00,
2013-02-09 22:42:00,36.6,21.5,30.06,WNW,293,0.0,0.0,54,0.00,,,0.00,WUHU216HW,2013-02-10 06:42:00,
2013-02-09 22:47:00,36.5,21.8,30.06,WNW,293,0.0,0.0,55,0.00,,,0.00,WUHU216HW,2013-02-10 06:47:00,
2013-02-09 22:52:00,36.5,21.8,30.06,WNW,293,0.0,0.0,55,0.00,,,0.00,WUHU216HW,2013-02-10 06:52:00,
2013-02-09 22:57:00,36.3,21.6,30.06,WNW,293,0.0,0.0,55,0.00,,,0.00,WUHU216HW,2013-02-10 06:57:00,
2013-02-09 23:02:00,36.3,21.6,30.06,WNW,293,0.0,0.0,55,0.00,,,0.00,WUHU216HW,2013-02-10 07:02:00,
2013-02-09 23:07:00,36.3,22.1,30.07,WNW,293,0.0,0.0,56,0.00,,,0.00,WUHU216HW,2013-02-10 07:07:00,
2013-02-09 23:12:00,36.1,21.9,30.07,SW,225,0.0,0.0,56,0.00,,,0.00,WUHU216HW,2013-02-10 07:12:00,
2013-02-09 23:17:00,35.9,21.7,30.07,SW,225,0.0,0.0,56,0.00,,,0.00,WUHU216HW,2013-02-10 07:17:00,
2013-02-09 23:22:00,35.9,21.7,30.07,SW,225,0.0,0.0,56,0.00,,,0.00,WUHU216HW,2013-02-10 07:22:00,
2013-02-09 23:27:00,35.7,22.0,30.07,SW,225,0.0,0.0,57,0.00,,,0.00,WUHU216HW,2013-02-10 07:27:00,
2013-02-09 23:32:00,35.9,22.2,30.07,SW,225,0.0,0.0,57,0.00,,,0.00,WUHU216HW,2013-02-10 07:32:00,
2013-02-09 23:37:00,35.7,22.0,30.07,SW,225,0.0,0.0,57,0.00,,,0.00,WUHU216HW,2013-02-10 07:37:00,
2013-02-09 23:42:00,35.7,22.0,30.07,SW,225,0.0,0.0,57,0.00,,,0.00,WUHU216HW,2013-02-10 07:42:00,
2013-02-09 23:47:00,35.7,22.0,30.07,SW,225,0.0,0.0,57,0.00,,,0.00,WUHU216HW,2013-02-10 07:47:00,
2013-02-09 23:52:00,35.4,21.7,30.07,SW,225,0.0,0.0,57,0.00,,,0.00,WUHU216HW,2013-02-10 07:52:00,
2013-02-09 23:57:00,35.2,21.5,30.07,SW,225,0.0,0.0,57,0.00,,,0.00,WUHU216HW,2013-02-10 07:57:00,